This is the latest recevied weather packets stored in our database for station/object N8AMF. If no packets are shown the sender has not sent any weather packets the latest 10 day(s).
| Time | Temp. | Humidity | Pressure | Rain* | Wind** | Luminosity | Snow |
|---|---|---|---|---|---|---|---|
| 1778161443 | 11.11° C | 72% | 1012.1 hPa | 0 mm | - | 97 W/m² | - |
| 1778161139 | 11.11° C | 71% | 1012.3 hPa | 0 mm | - | 95 W/m² | - |
| 1778160835 | 11.11° C | 71% | 1012.2 hPa | 0 mm | - | 94 W/m² | - |
| 1778160533 | 11.11° C | 71% | 1012.2 hPa | 0 mm | - | 113 W/m² | - |
| 1778160229 | 11.11° C | 71% | 1012.1 hPa | 0 mm | - | 174 W/m² | - |
| 1778159927 | 11.11° C | 69% | 1012.2 hPa | 0 mm | - | 191 W/m² | - |
| 1778159624 | 11.11° C | 73% | 1012.1 hPa | 0 mm | - | 317 W/m² | - |
| 1778159320 | 10.56° C | 75% | 1012.3 hPa | 0 mm | - | 248 W/m² | - |
| 1778159017 | 10° C | 74% | 1012.4 hPa | 0 mm | - | 122 W/m² | - |
| 1778158716 | 9.44° C | 75% | 1012.3 hPa | 0 mm | - | 125 W/m² | - |
| 1778158413 | 9.44° C | 75% | 1012.4 hPa | 0 mm | - | 99 W/m² | - |
| 1778158110 | 8.89° C | 76% | 1012.3 hPa | 0 mm | - | 112 W/m² | - |
| 1778157806 | 8.89° C | 76% | 1012.2 hPa | 0 mm | - | 109 W/m² | - |
| 1778157505 | 8.89° C | 76% | 1012.3 hPa | 0 mm | - | 114 W/m² | - |
| 1778157202 | 8.89° C | 76% | 1012.4 hPa | 0 mm | - | 125 W/m² | - |
| 1778156898 | 8.89° C | 77% | 1012.2 hPa | 0 mm | - | 132 W/m² | - |
| 1778156594 | 8.33° C | 78% | 1012.2 hPa | 0 mm | - | 132 W/m² | - |
| 1778156290 | 8.33° C | 78% | 1012.4 hPa | 0 mm | - | 135 W/m² | - |
| 1778155986 | 8.33° C | 78% | 1012.3 hPa | 0 mm | - | 129 W/m² | - |
| 1778155683 | 7.78° C | 79% | 1012.1 hPa | 0 mm | - | 133 W/m² | - |
| 1778155379 | 7.78° C | 79% | 1012.1 hPa | 0 mm | - | 122 W/m² | - |
| 1778155075 | 7.78° C | 80% | 1012 hPa | 0 mm | - | 112 W/m² | - |
| 1778154771 | 7.78° C | 80% | 1012.1 hPa | 0 mm | - | 112 W/m² | - |
| 1778154466 | 7.22° C | 81% | 1012.1 hPa | 0 mm | - | 105 W/m² | - |
| 1778154164 | 7.22° C | 81% | 1012.1 hPa | 0 mm | - | 96 W/m² | - |
* Rain latest hour (hover to see other rain measurements)
** Current wind speed in m/s (hover to see current wind gust speed)